Regional Weather Roundup
Issued by NWS Cleveland, OH

Home | Current Version | Previous Version | Graphics & Text | Print | Product List | Glossary On
Versions: 1 2 3 4 5 6 7 8 9 10 11 12 13 14 15 16 17 18 19 20 21 22 23 24 25 26 27 28 29 30 31 32 33 34 35 36 37 38 39 40 41 42 43 44 45 46 47 48 49 50
235
ASUS41 KCLE 081500
RWRCLE
OHIO REGIONAL WEATHER ROUNDUP
NATIONAL WEATHER SERVICE WILMINGTON, OH
1000 AM EST MON FEB 08 2016

NOTE: "FAIR" INDICATES FEW OR NO CLOUDS BELOW 12,000 FEET WITH NO
SIGNIFICANT WEATHER AND/OR OBSTRUCTIONS TO VISIBILITY.

OHZ001>008-015>018-024>027-034-035-043-044-081600-
   NORTHWEST OHIO

CITY           SKY/WX    TMP DP  RH WIND       PRES   REMARKS
DEFIANCE       PTSUNNY   35  29  78 VRB3      29.63F
FINDLAY        PTSUNNY   37  30  75 W8        29.61F
TOLEDO EXPRESS CLOUDY    35  29  78 W8        29.61F WCI  29
TOLEDO EXEC    CLOUDY    37  30  75 W9        29.62F
LIMA           FAIR      37  31  78 W10       29.62S
$$

OHZ009>014-019>023-028>033-038-089-081600-
   NORTHEAST OHIO

CITY           SKY/WX    TMP DP  RH WIND       PRES   REMARKS
CLE-HOPKINS    LGT RAIN  37  33  85 S8        29.64S FOG
CLE-LAKEFRONT  LGT RAIN  39  35  86 S8        29.61F FOG
CUY CO. ARPT   FLURRIES  41  34  75 S6        29.61F
LORAIN-ELYRIA  SNOW      32  30  92 W5        29.62S VSB 1/2 WCI  27
ASHTABULA      CLOUDY    39  27  62 SE7       29.62F
AKRON-CANTON   CLOUDY    39  26  59 SW5       29.60F
WOOSTER        SNOW      33  32  96 S5        29.61S VSB 1/2 WCI  29
MANSFIELD      LGT SNOW  33  32  96 CALM      29.60S VSB 3/4
YOUNGSTOWN     CLOUDY    38  25  59 SE7       29.61F
$$

OHZ042-051>053-060>062-070>072-077>081-081600-
  SOUTHWEST OHIO

CITY           SKY/WX    TMP DP  RH WIND       PRES   REMARKS
CINC-COVINGTON CLOUDY    36  34  92 W9        29.66R
CINC-LUNKEN    CLOUDY    37  34  89 W9        29.68F
HAMILTON       MIX PCPN  35  31  85 NW5       29.67S
DAYTON         NOT AVBL
WRIGHT-PAT AFB NOT AVBL
DAYTON GENERAL CLOUDY    36  31  82 W10       29.63S
WILMINGTON     CLOUDY    36  34  92 SW10      29.62F
$$

OHZ036-037-039>041-045>050-054>059-063>069-073>076-082>088-081600-
  CENTRAL AND SOUTHEAST OHIO

CITY           SKY/WX    TMP DP  RH WIND       PRES   REMARKS
COLUMBUS       LGT SNOW  33  33 100 NW5       29.62S VSB 1   WCI  29
OSU AIRPORT    CLOUDY    34  34 100 CALM      29.61F FOG
BOLTON FIELD   CLOUDY    34  34 100 CALM      29.63S
RICKENBACK AFB NOT AVBL
NEWARK         LGT SNOW  34  32  92 SW5       29.61S VSB 1   WCI  30
MARION         CLOUDY    34  31  88 CALM      29.61F
LANCASTER      LGT SNOW  33  31  92 SW5       29.63S VSB 3/4 WCI  29
ZANESVILLE     SNOW      35  31  85 E3        29.62F VSB 1/2
NEW PHILLY     CLOUDY    38  25  59 SE3       29.62F
$$




USA.gov is the U.S. government's official web portal to all federal, state and local government web resources and services.